QPF
0.00 0.00 0.01 0.01 0.01 0.01 0.01 0.01 0.01 0.01 0.01 0.02 0.01 0.01 0.01 0.01 0.01 0.01 0.01 0.01 0.00 0.00 0.00 0.01 0.01 0.01 0.00 0.00 0.00 0.00 0.00 0.00 0.01 0.01 0.01 0.02 0.02 0.02 0.01 0.02 0.01 0.02 0.02 0.02
0.01 0.00 0.01 0.01 0.01 0.00 0.00 0.00 0.00 0.00 0.00 0.00 0.01 0.01 0.01 0.01 0.01 0.01 0.01 0.00 0.00 0.00 0.00 0.00 0.00 0.00 0.00 0.00 0.00 0.00 0.00 0.00 0.00 0.01 0.01 0.01 0.02 0.02 0.02 0.02 0.01 0.02 0.02 0.02
0.01 0.00 0.01 0.01 0.00 0.00 0.00 0.01 0.01 0.01 0.00 0.00 0.00 0.00 0.00 0.01 0.01 0.01 0.01 0.01 0.00 0.00 0.00 0.00 0.00 0.00 0.00 0.00 0.00 0.00 0.00 0.00 0.00 0.01 0.01 0.01 0.02 0.02 0.02 0.02 0.02 0.02 0.02 0.02
0.02 0.01 0.01 0.01 0.00 0.00 0.00 0.00 0.01 0.01 0.00 0.00 0.00 0.00 0.01 0.01 0.01 0.01 0.01 0.01 0.01 0.01 0.00 0.00 0.00 0.00 0.01 0.01 0.01 0.01 0.00 0.00 0.00 0.00 0.01 0.01 0.01 0.01 0.02 0.02 0.03 0.02 0.02 0.02
0.02 0.01 0.00 0.00 0.00 0.00 0.00 0.00 0.00 0.00 0.00 0.00 0.00 0.00 0.00 0.00 0.00 0.00 0.00 0.00 0.00 0.00 0.00 0.00 0.00 0.01 0.01 0.01 0.01 0.01 0.01 0.01 0.01 0.00 0.01 0.01 0.01 0.01 0.02 0.02 0.03 0.02 0.02 0.02
0.03 0.02 0.01 0.00 0.00 0.00 0.00 0.01 0.00 0.00 0.00 0.00 0.00 0.00 0.00 0.00 0.00 0.00 0.00 0.00 0.00 0.00 0.00 0.00 0.00 0.00 0.00 0.01 0.01 0.01 0.01 0.01 0.01 0.01 0.01 0.01 0.01 0.01 0.01 0.02 0.02 0.02 0.02 0.02
0.02 0.02 0.01 0.00 0.00 0.00 0.00 0.00 0.00 0.00 0.00 0.00 0.00 0.00 0.00 0.00 0.00 0.01 0.00 0.00 0.00 0.00 0.00 0.00 0.00 0.00 0.00 0.00 0.01 0.01 0.01 0.01 0.01 0.01 0.01 0.01 0.01 0.01 0.01 0.01 0.01 0.02 0.02 0.02
0.01 0.02 0.01 0.00 0.00 0.00 0.00 0.00 0.00 0.00 0.00 0.00 0.00 0.00 0.00 0.00 0.01 0.01 0.00 0.00 0.00 0.00 0.00 0.00 0.00 0.00 0.00 0.00 0.01 0.01 0.01 0.01 0.01 0.01 0.01 0.01 0.01 0.01 0.01 0.01 0.02 0.02 0.02 0.02
0.01 0.01 0.01 0.00 0.00 0.00 0.00 0.00 0.00 0.00 0.00 0.00 0.00 0.00 0.00 0.01 0.01 0.00 0.00 0.00 0.00 0.00 0.00 0.00 0.00 0.00 0.00 0.00 0.00 0.01 0.01 0.01 0.01 0.01 0.01 0.01 0.01 0.01 0.01 0.01 0.01 0.01 0.01 0.01
0.01 0.01 0.00 0.00 0.00 0.00 0.00 0.00 0.00 0.00 0.00 0.00 0.00 0.01 0.01 0.01 0.01 0.00 0.00 0.00 0.00 0.00 0.00 0.00 0.00 0.00 0.00 0.00 0.01 0.01 0.01 0.01 0.01 0.01 0.01 0.01 0.01 0.01 0.01 0.01 0.01 0.01 0.01 0.01
0.01 0.01 0.01 0.00 0.01 0.01 0.00 0.00 0.01 0.00 0.00 0.00 0.01 0.01 0.01 0.01 0.01 0.00 0.00 0.00 0.00 0.00 0.00 0.00 0.00 0.00 0.00 0.01 0.01 0.01 0.01 0.01 0.01 0.01 0.01 0.01 0.01 0.01 0.01 0.01 0.01 0.02 0.02 0.02
0.01 0.01 0.01 0.01 0.00 0.00 0.00 0.00 0.01 0.01 0.01 0.01 0.01 0.01 0.01 0.00 0.00 0.00 0.00 0.00 0.00 0.00 0.00 0.00 0.00 0.00 0.00 0.01 0.01 0.01 0.01 0.01 0.01 0.01 0.01 0.01 0.01 0.01 0.01 0.01 0.01 0.01 0.01 0.02
0.01 0.01 0.01 0.00 0.00 0.00 0.01 0.01 0.01 0.01 0.01 0.01 0.01 0.01 0.00 0.00 0.00 0.00 0.00 0.00 0.00 0.00 0.00 0.00 0.01 0.01 0.01 0.01 0.01 0.01 0.01 0.01 0.01 0.01 0.01 0.01 0.01 0.01 0.01 0.01 0.01 0.01 0.01 0.01
0.01 0.00 0.00 0.00 0.00 0.01 0.01 0.01 0.01 0.01 0.01 0.01 0.01 0.01 0.00 0.00 0.00 0.00 0.00 0.00 0.00 0.00 0.00 0.00 0.00 0.00 0.01 0.01 0.01 0.01 0.01 0.01 0.01 0.01 0.01 0.01 0.01 0.01 0.01 0.01 0.01 0.01 0.01 0.01
0.00 0.00 0.01 0.01 0.01 0.01 0.01 0.01 0.01 0.01 0.01 0.01 0.01 0.01 0.00 0.00 0.00 0.00 0.00 0.00 0.00 0.00 0.00 0.00 0.00 0.00 0.01 0.01 0.01 0.01 0.01 0.01 0.01 0.01 0.01 0.01 0.01 0.01 0.01 0.01 0.01 0.01 0.01 0.01
0.00 0.00 0.01 0.01 0.01 0.01 0.01 0.01 0.01 0.01 0.01 0.01 0.01 0.01 0.01 0.00 0.00 0.00 0.00 0.00 0.00 0.00 0.00 0.00 0.00 0.01 0.01 0.01 0.01 0.01 0.01 0.01 0.01 0.01 0.01 0.01 0.01 0.01 0.01 0.01 0.01 0.01 0.01 0.02
0.00 0.01 0.01 0.01 0.02 0.02 0.02 0.01 0.01 0.01 0.01 0.01 0.01 0.01 0.00 0.01 0.01 0.01 0.01 0.01 0.00 0.00 0.00 0.00 0.01 0.01 0.01 0.01 0.01 0.01 0.01 0.01 0.01 0.01 0.01 0.01 0.01 0.01 0.01 0.01 0.01 0.01 0.01 0.01
0.01 0.01 0.02 0.02 0.02 0.02 0.01 0.01 0.01 0.01 0.01 0.01 0.01 0.01 0.01 0.01 0.01 0.01 0.01 0.01 0.00 0.00 0.00 0.00 0.01 0.01 0.00 0.01 0.01 0.01 0.01 0.01 0.01 0.01 0.01 0.01 0.01 0.01 0.01 0.01 0.01 0.01 0.01 0.01
0.01 0.02 0.02 0.02 0.02 0.01 0.01 0.01 0.01 0.01 0.01 0.01 0.01 0.01 0.01 0.01 0.01 0.01 0.00 0.00 0.00 0.00 0.01 0.01 0.01 0.00 0.00 0.01 0.01 0.01 0.01 0.01 0.01 0.01 0.01 0.01 0.01 0.01 0.01 0.01 0.01 0.01 0.01 0.01
0.01 0.01 0.01 0.01 0.01 0.01 0.01 0.01 0.01 0.01 0.01 0.01 0.01 0.00 0.00 0.00 0.00 0.00 0.00 0.00 0.00 0.01 0.01 0.01 0.00 0.00 0.00 0.00 0.01 0.01 0.01 0.01 0.01 0.01 0.01 0.01 0.01 0.01 0.01 0.01 0.01 0.01 0.01 0.01
0.01 0.01 0.01 0.01 0.01 0.01 0.01 0.01 0.01 0.01 0.01 0.01 0.01 0.00 0.00 0.00 0.00 0.00 0.00 0.00 0.00 0.00 0.00 0.00 0.00 0.00 0.01 0.01 0.01 0.01 0.01 0.01 0.01 0.01 0.01 0.01 0.01 0.01 0.01 0.01 0.01 0.01 0.01 0.01
0.01 0.01 0.00 0.00 0.00 0.00 0.00 0.00 0.00 0.01 0.01 0.01 0.00 0.00 0.00 0.00 0.00 0.00 0.00 0.00 0.00 0.00 0.00 0.00 0.00 0.01 0.01 0.01 0.01 0.01 0.00 0.01 0.01 0.01 0.01 0.01 0.01 0.01 0.01 0.01 0.01 0.01 0.01 0.01
0.00 0.00 0.00 0.00 0.00 0.00 0.01 0.00 0.00 0.00 0.00 0.00 0.00 0.00 0.00 0.00 0.00 0.00 0.00 0.00 0.00 0.00 0.00 0.00 0.01 0.01 0.01 0.01 0.01 0.01 0.01 0.01 0.01 0.01 0.01 0.01 0.01 0.01 0.01 0.01 0.01 0.01 0.01 0.01
0.00 0.00 0.00 0.00 0.00 0.01 0.01 0.01 0.01 0.00 0.00 0.00 0.00 0.00 0.00 0.00 0.00 0.00 0.00 0.00 0.00 0.00 0.00 0.00 0.01 0.01 0.01 0.01 0.01 0.00 0.01 0.01 0.01 0.01 0.01 0.01 0.01 0.01 0.01 0.01 0.01 0.01 0.01 0.01
0.00 0.00 0.00 0.01 0.01 0.01 0.01 0.01 0.01 0.01 0.01 0.00 0.00 0.00 0.00 0.00 0.00 0.00 0.00 0.00 0.00 0.00 0.00 0.00 0.00 0.01 0.01 0.00 0.00 0.00 0.00 0.01 0.01 0.01 0.01 0.01 0.01 0.01 0.01 0.01 0.01 0.01 0.01 0.01
0.00 0.00 0.01 0.01 0.01 0.01 0.01 0.01 0.01 0.01 0.01 0.00 0.00 0.00 0.00 0.00 0.00 0.00 0.00 0.00 0.00 0.00 0.00 0.00 0.00 0.00 0.00 0.00 0.00 0.00 0.00 0.00 0.00 0.00 0.00 0.00 0.00 0.00 0.00 0.01 0.01 0.01 0.01 0.01
0.00 0.00 0.01 0.01 0.01 0.01 0.01 0.01 0.01 0.00 0.00 0.00 0.00 0.00 0.00 0.00 0.00 0.00 0.00 0.00 0.00 0.00 0.00 0.00 0.00 0.00 0.00 0.00 0.00 0.00 0.00 0.00 0.00 0.00 0.00 0.00 0.00 0.00 0.01 0.01 0.01 0.01 0.01 0.01
MSLP
1030.14 1031.56 1032.84 1033.91 1034.71 1035.25 1035.58 1035.76 1035.89 1036.05 1036.31 1036.69 1037.21 1037.80 1038.42 1038.99 1039.46 1039.79 1039.96 1039.98 1039.88 1039.71 1039.51 1039.31 1039.13 1038.96 1038.79 1038.61 1038.38 1038.12 1037.80 1037.45 1037.09 1036.73 1036.40 1036.08 1035.78 1035.47 1035.13 1034.73 1034.26 1033.70 1033.08 1032.42
1029.85 1031.31 1032.69 1033.90 1034.89 1035.64 1036.18 1036.55 1036.82 1037.07 1037.35 1037.70 1038.12 1038.59 1039.07 1039.51 1039.86 1040.10 1040.21 1040.20 1040.10 1039.94 1039.76 1039.57 1039.39 1039.23 1039.06 1038.87 1038.66 1038.40 1038.11 1037.79 1037.46 1037.13 1036.81 1036.51 1036.22 1035.92 1035.59 1035.20 1034.74 1034.21 1033.61 1032.97
1029.17 1030.57 1031.95 1033.24 1034.36 1035.29 1036.03 1036.62 1037.08 1037.49 1037.87 1038.27 1038.69 1039.11 1039.52 1039.87 1040.15 1040.33 1040.40 1040.38 1040.28 1040.13 1039.96 1039.79 1039.62 1039.46 1039.29 1039.11 1038.90 1038.65 1038.37 1038.06 1037.74 1037.43 1037.13 1036.85 1036.57 1036.28 1035.96 1035.59 1035.16 1034.65 1034.08 1033.47
1028.30 1029.59 1030.91 1032.20 1033.40 1034.47 1035.39 1036.18 1036.86 1037.44 1037.97 1038.47 1038.93 1039.37 1039.75 1040.07 1040.30 1040.44 1040.50 1040.47 1040.37 1040.24 1040.10 1039.95 1039.80 1039.65 1039.49 1039.31 1039.09 1038.85 1038.57 1038.27 1037.96 1037.66 1037.37 1037.10 1036.84 1036.56 1036.26 1035.91 1035.50 1035.02 1034.48 1033.89
1027.57 1028.72 1029.95 1031.21 1032.43 1033.59 1034.64 1035.59 1036.44 1037.19 1037.86 1038.46 1038.98 1039.44 1039.82 1040.12 1040.33 1040.45 1040.49 1040.47 1040.39 1040.29 1040.17 1040.05 1039.92 1039.79 1039.64 1039.46 1039.25 1039.00 1038.72 1038.43 1038.13 1037.83 1037.55 1037.29 1037.03 1036.77 1036.48 1036.15 1035.76 1035.29 1034.77 1034.19
1027.31 1028.33 1029.46 1030.64 1031.84 1033.02 1034.15 1035.19 1036.14 1037.00 1037.76 1038.42 1038.98 1039.45 1039.82 1040.10 1040.28 1040.38 1040.42 1040.40 1040.35 1040.27 1040.19 1040.10 1040.00 1039.89 1039.75 1039.58 1039.37 1039.12 1038.85 1038.55 1038.25 1037.96 1037.68 1037.43 1037.17 1036.92 1036.63 1036.30 1035.91 1035.45 1034.92 1034.33
1027.76 1028.68 1029.69 1030.79 1031.92 1033.06 1034.17 1035.23 1036.20 1037.08 1037.85 1038.51 1039.06 1039.49 1039.82 1040.06 1040.21 1040.29 1040.31 1040.30 1040.27 1040.23 1040.18 1040.12 1040.06 1039.96 1039.84 1039.67 1039.47 1039.22 1038.94 1038.64 1038.34 1038.05 1037.78 1037.51 1037.26 1036.99 1036.69 1036.35 1035.94 1035.47 1034.92 1034.32
1029.01 1029.84 1030.75 1031.73 1032.75 1033.79 1034.81 1035.79 1036.69 1037.50 1038.20 1038.79 1039.26 1039.62 1039.88 1040.05 1040.15 1040.20 1040.21 1040.20 1040.19 1040.18 1040.16 1040.13 1040.08 1040.01 1039.90 1039.74 1039.53 1039.28 1039.00 1038.70 1038.40 1038.10 1037.82 1037.54 1037.27 1036.98 1036.66 1036.29 1035.85 1035.34 1034.77 1034.14
1030.94 1031.70 1032.50 1033.34 1034.22 1035.10 1035.96 1036.78 1037.53 1038.20 1038.76 1039.22 1039.57 1039.82 1039.98 1040.08 1040.12 1040.13 1040.13 1040.12 1040.12 1040.12 1040.13 1040.12 1040.09 1040.03 1039.92 1039.75 1039.54 1039.29 1039.00 1038.70 1038.39 1038.09 1037.79 1037.50 1037.20 1036.88 1036.52 1036.10 1035.62 1035.07 1034.46 1033.81
1033.28 1033.95 1034.63 1035.31 1036.01 1036.69 1037.36 1037.98 1038.53 1039.01 1039.40 1039.70 1039.91 1040.04 1040.10 1040.11 1040.10 1040.08 1040.06 1040.05 1040.05 1040.07 1040.08 1040.08 1040.06 1039.99 1039.87 1039.70 1039.48 1039.22 1038.93 1038.62 1038.30 1037.99 1037.67 1037.36 1037.03 1036.67 1036.26 1035.80 1035.27 1034.68 1034.04 1033.37
1035.64 1036.20 1036.74 1037.25 1037.75 1038.23 1038.68 1039.09 1039.44 1039.73 1039.95 1040.10 1040.18 1040.20 1040.18 1040.14 1040.08 1040.03 1039.99 1039.98 1039.98 1039.99 1040.00 1039.99 1039.95 1039.86 1039.73 1039.54 1039.31 1039.03 1038.74 1038.42 1038.10 1037.78 1037.45 1037.11 1036.75 1036.35 1035.90 1035.39 1034.82 1034.20 1033.54 1032.85
1037.63 1038.07 1038.45 1038.79 1039.09 1039.38 1039.63 1039.86 1040.05 1040.19 1040.28 1040.32 1040.31 1040.27 1040.20 1040.12 1040.04 1039.97 1039.92 1039.89 1039.87 1039.86 1039.84 1039.80 1039.73 1039.61 1039.45 1039.24 1038.99 1038.70 1038.40 1038.08 1037.76 1037.43 1037.10 1036.74 1036.36 1035.93 1035.44 1034.90 1034.31 1033.66 1032.99 1032.31
1039.02 1039.31 1039.53 1039.71 1039.86 1039.99 1040.10 1040.20 1040.28 1040.33 1040.36 1040.35 1040.31 1040.25 1040.17 1040.08 1040.00 1039.92 1039.85 1039.79 1039.73 1039.67 1039.60 1039.50 1039.38 1039.21 1039.01 1038.77 1038.50 1038.22 1037.91 1037.61 1037.29 1036.97 1036.64 1036.27 1035.88 1035.43 1034.93 1034.37 1033.76 1033.11 1032.44 1031.79
1039.73 1039.88 1039.97 1040.02 1040.05 1040.08 1040.12 1040.17 1040.21 1040.25 1040.27 1040.27 1040.25 1040.21 1040.15 1040.07 1039.98 1039.88 1039.78 1039.67 1039.55 1039.41 1039.26 1039.09 1038.89 1038.67 1038.42 1038.15 1037.87 1037.58 1037.29 1037.00 1036.71 1036.41 1036.08 1035.73 1035.34 1034.89 1034.38 1033.82 1033.21 1032.57 1031.92 1031.28
1039.89 1039.92 1039.91 1039.88 1039.86 1039.86 1039.88 1039.93 1040.00 1040.08 1040.15 1040.21 1040.24 1040.24 1040.20 1040.13 1040.03 1039.89 1039.72 1039.53 1039.32 1039.08 1038.83 1038.56 1038.28 1037.99 1037.69 1037.40 1037.11 1036.83 1036.56 1036.30 1036.04 1035.77 1035.47 1035.14 1034.75 1034.32 1033.82 1033.27 1032.67 1032.05 1031.42 1030.82
1039.74 1039.70 1039.63 1039.58 1039.55 1039.56 1039.63 1039.73 1039.86 1040.01 1040.15 1040.27 1040.35 1040.38 1040.35 1040.27 1040.12 1039.92 1039.67 1039.37 1039.03 1038.68 1038.31 1037.93 1037.56 1037.21 1036.87 1036.55 1036.27 1036.00 1035.76 1035.54 1035.31 1035.07 1034.81 1034.50 1034.14 1033.72 1033.24 1032.71 1032.13 1031.54 1030.94 1030.36
1039.56 1039.49 1039.42 1039.38 1039.38 1039.44 1039.56 1039.72 1039.92 1040.12 1040.32 1040.48 1040.59 1040.62 1040.57 1040.44 1040.22 1039.92 1039.55 1039.13 1038.66 1038.18 1037.69 1037.21 1036.76 1036.34 1035.96 1035.64 1035.36 1035.12 1034.91 1034.72 1034.54 1034.33 1034.10 1033.82 1033.48 1033.08 1032.62 1032.11 1031.57 1031.00 1030.43 1029.89
1039.58 1039.52 1039.48 1039.47 1039.51 1039.61 1039.77 1039.97 1040.20 1040.42 1040.63 1040.78 1040.86 1040.85 1040.74 1040.52 1040.20 1039.79 1039.30 1038.74 1038.15 1037.55 1036.95 1036.39 1035.87 1035.41 1035.01 1034.68 1034.42 1034.21 1034.03 1033.87 1033.71 1033.54 1033.32 1033.06 1032.74 1032.36 1031.92 1031.44 1030.92 1030.39 1029.86 1029.35
1039.86 1039.84 1039.83 1039.85 1039.92 1040.03 1040.19 1040.38 1040.58 1040.76 1040.91 1041.00 1041.01 1040.91 1040.70 1040.38 1039.94 1039.41 1038.80 1038.13 1037.44 1036.74 1036.07 1035.45 1034.89 1034.41 1034.01 1033.69 1033.44 1033.25 1033.10 1032.96 1032.82 1032.66 1032.45 1032.20 1031.88 1031.51 1031.09 1030.63 1030.15 1029.65 1029.16 1028.70
1040.33 1040.35 1040.36 1040.38 1040.43 1040.51 1040.61 1040.72 1040.83 1040.92 1040.96 1040.93 1040.82 1040.60 1040.28 1039.85 1039.31 1038.68 1037.99 1037.25 1036.49 1035.75 1035.04 1034.39 1033.83 1033.35 1032.96 1032.65 1032.42 1032.24 1032.10 1031.97 1031.83 1031.66 1031.45 1031.19 1030.87 1030.51 1030.10 1029.66 1029.21 1028.76 1028.32 1027.91
1040.78 1040.82 1040.82 1040.81 1040.79 1040.78 1040.78 1040.76 1040.73 1040.67 1040.57 1040.40 1040.15 1039.81 1039.38 1038.86 1038.25 1037.57 1036.83 1036.07 1035.30 1034.55 1033.86 1033.23 1032.68 1032.22 1031.85 1031.56 1031.34 1031.16 1031.01 1030.87 1030.71 1030.53 1030.30 1030.02 1029.70 1029.33 1028.94 1028.53 1028.11 1027.71 1027.32 1026.96
1040.99 1041.00 1040.96 1040.88 1040.76 1040.63 1040.48 1040.31 1040.12 1039.90 1039.63 1039.32 1038.95 1038.52 1038.01 1037.43 1036.80 1036.11 1035.38 1034.65 1033.91 1033.21 1032.56 1031.97 1031.46 1031.03 1030.68 1030.40 1030.18 1030.00 1029.83 1029.66 1029.48 1029.26 1029.00 1028.71 1028.38 1028.01 1027.63 1027.25 1026.88 1026.52 1026.19 1025.90
1040.78 1040.73 1040.61 1040.43 1040.20 1039.93 1039.63 1039.30 1038.96 1038.59 1038.19 1037.77 1037.31 1036.81 1036.27 1035.69 1035.07 1034.42 1033.75 1033.08 1032.42 1031.79 1031.20 1030.67 1030.21 1029.81 1029.47 1029.19 1028.96 1028.75 1028.56 1028.35 1028.14 1027.89 1027.61 1027.30 1026.96 1026.60 1026.24 1025.89 1025.56 1025.26 1024.99 1024.75
1040.06 1039.93 1039.72 1039.44 1039.10 1038.71 1038.28 1037.83 1037.37 1036.89 1036.41 1035.92 1035.41 1034.90 1034.37 1033.82 1033.25 1032.67 1032.09 1031.50 1030.92 1030.37 1029.85 1029.37 1028.94 1028.56 1028.23 1027.94 1027.68 1027.45 1027.22 1026.98 1026.73 1026.46 1026.16 1025.84 1025.51 1025.17 1024.84 1024.52 1024.23 1023.98 1023.75 1023.57
1038.88 1038.67 1038.39 1038.02 1037.59 1037.12 1036.62 1036.10 1035.57 1035.04 1034.52 1034.00 1033.50 1033.01 1032.52 1032.03 1031.53 1031.03 1030.52 1030.02 1029.52 1029.03 1028.56 1028.11 1027.70 1027.32 1026.98 1026.67 1026.38 1026.11 1025.84 1025.57 1025.30 1025.01 1024.71 1024.40 1024.08 1023.76 1023.46 1023.18 1022.93 1022.71 1022.53 1022.38
1037.40 1037.13 1036.78 1036.38 1035.92 1035.42 1034.89 1034.35 1033.81 1033.28 1032.76 1032.27 1031.80 1031.34 1030.90 1030.47 1030.03 1029.60 1029.15 1028.70 1028.25 1027.79 1027.34 1026.91 1026.49 1026.09 1025.72 1025.37 1025.05 1024.74 1024.45 1024.16 1023.87 1023.58 1023.29 1022.99 1022.70 1022.41 1022.14 1021.89 1021.67 1021.47 1021.31 1021.18
1035.81 1035.51 1035.15 1034.74 1034.30 1033.82 1033.31 1032.81 1032.30 1031.80 1031.32 1030.87 1030.43 1030.01 1029.61 1029.21 1028.81 1028.40 1027.98 1027.55 1027.10 1026.64 1026.18 1025.72 1025.28 1024.85 1024.44 1024.05 1023.70 1023.36 1023.05 1022.75 1022.46 1022.17 1021.89 1021.62 1021.35 1021.09 1020.84 1020.61 1020.40 1020.22 1020.06 1019.93
Thickness
5400 5402 5396 5396 5394 5387 5386 5390 5391 5400 5394 5399 5392 5382 5377 5372 5367 5363 5361 5359 5356 5353 5350 5348 5347 5345 5344 5342 5342 5342 5342 5342 5343 5343 5343 5343 5343 5344 5344 5345 5346 5347 5349 5350
5384 5387 5385 5387 5390 5386 5383 5380 5379 5381 5383 5380 5374 5368 5363 5359 5356 5353 5350 5347 5344 5341 5338 5336 5334 5332 5330 5328 5328 5327 5327 5327 5328 5328 5328 5329 5329 5330 5330 5330 5331 5332 5333 5335
5375 5371 5375 5379 5383 5378 5372 5363 5366 5372 5377 5366 5360 5358 5353 5348 5345 5343 5339 5335 5331 5328 5325 5323 5320 5319 5317 5315 5314 5313 5313 5314 5314 5313 5313 5314 5315 5315 5315 5315 5316 5317 5319 5321
5355 5355 5364 5388 5368 5367 5362 5358 5352 5354 5353 5351 5348 5343 5339 5336 5332 5329 5327 5322 5318 5315 5312 5309 5307 5305 5303 5302 5301 5300 5300 5300 5300 5299 5299 5299 5300 5300 5301 5301 5302 5303 5305 5306
5343 5342 5356 5364 5358 5350 5349 5348 5342 5340 5338 5336 5331 5328 5327 5325 5320 5317 5312 5309 5305 5302 5299 5296 5294 5292 5290 5289 5288 5287 5287 5286 5286 5285 5285 5285 5285 5286 5286 5287 5288 5289 5291 5293
5333 5336 5347 5362 5346 5339 5340 5340 5337 5329 5326 5322 5318 5318 5322 5314 5307 5302 5298 5295 5291 5288 5285 5283 5281 5280 5277 5276 5275 5274 5274 5274 5273 5272 5272 5272 5271 5271 5272 5272 5274 5275 5277 5279
5325 5325 5338 5335 5328 5330 5332 5340 5326 5318 5314 5308 5306 5309 5305 5297 5292 5288 5285 5281 5278 5275 5273 5271 5269 5267 5265 5263 5262 5262 5261 5261 5260 5259 5259 5259 5258 5258 5258 5259 5260 5261 5263 5265
5315 5314 5331 5319 5314 5317 5320 5313 5308 5304 5300 5296 5293 5290 5286 5282 5278 5274 5270 5267 5264 5261 5259 5258 5256 5255 5253 5251 5250 5249 5248 5248 5247 5246 5246 5246 5245 5245 5245 5245 5246 5247 5249 5251
5318 5323 5314 5302 5304 5302 5297 5295 5292 5289 5286 5283 5279 5276 5273 5268 5263 5259 5256 5253 5250 5247 5246 5244 5243 5241 5239 5238 5237 5236 5235 5234 5233 5233 5232 5232 5232 5232 5231 5231 5232 5234 5236 5239
5296 5299 5297 5293 5289 5287 5283 5281 5279 5275 5272 5268 5265 5261 5257 5253 5249 5245 5242 5239 5236 5234 5232 5231 5229 5228 5226 5225 5224 5222 5221 5221 5220 5220 5220 5219 5218 5219 5219 5219 5220 5222 5224 5227
5286 5288 5286 5286 5280 5276 5271 5268 5265 5261 5257 5254 5250 5247 5242 5238 5234 5231 5229 5226 5223 5220 5219 5217 5216 5214 5213 5212 5210 5208 5207 5207 5207 5207 5206 5206 5207 5206 5207 5209 5209 5211 5213 5215
5287 5281 5274 5274 5270 5264 5258 5255 5251 5247 5244 5240 5237 5233 5229 5224 5220 5217 5214 5212 5209 5207 5205 5204 5202 5201 5200 5199 5197 5195 5194 5194 5193 5193 5193 5194 5194 5195 5197 5198 5200 5201 5203 5204
5271 5267 5262 5260 5255 5250 5245 5241 5238 5234 5230 5226 5222 5218 5214 5210 5207 5203 5201 5198 5196 5194 5193 5191 5189 5188 5187 5186 5184 5182 5181 5181 5180 5181 5181 5181 5182 5183 5185 5187 5188 5190 5192 5193
5256 5252 5249 5246 5241 5235 5231 5228 5223 5218 5214 5211 5207 5203 5200 5196 5193 5190 5187 5185 5183 5181 5179 5178 5177 5176 5175 5174 5172 5171 5169 5169 5170 5169 5169 5169 5170 5171 5172 5173 5175 5177 5179 5181
5244 5240 5238 5232 5226 5221 5217 5212 5208 5203 5199 5195 5192 5189 5186 5183 5180 5177 5174 5173 5171 5169 5167 5166 5165 5164 5164 5162 5161 5159 5158 5157 5157 5157 5157 5158 5159 5160 5160 5161 5163 5164 5166 5168
5231 5226 5222 5217 5213 5209 5203 5199 5196 5191 5187 5183 5179 5176 5173 5169 5166 5164 5162 5160 5158 5158 5157 5155 5155 5154 5153 5152 5150 5149 5148 5149 5149 5148 5148 5148 5148 5149 5150 5150 5151 5152 5153 5154
5219 5215 5210 5206 5202 5197 5192 5188 5184 5180 5174 5170 5167 5163 5160 5157 5154 5152 5151 5149 5147 5147 5146 5145 5145 5145 5143 5142 5140 5139 5138 5138 5140 5139 5138 5138 5138 5139 5139 5139 5140 5141 5142 5143
5211 5208 5202 5197 5192 5187 5182 5177 5173 5168 5163 5159 5155 5151 5148 5145 5143 5141 5139 5138 5137 5136 5136 5136 5136 5135 5134 5132 5131 5130 5129 5129 5129 5128 5128 5128 5129 5129 5129 5129 5130 5131 5132 5133
5199 5195 5190 5186 5181 5176 5171 5166 5162 5157 5152 5148 5144 5140 5137 5135 5132 5130 5128 5127 5126 5125 5127 5126 5127 5126 5124 5123 5123 5121 5120 5120 5120 5119 5119 5120 5120 5120 5120 5120 5120 5121 5122 5123
5188 5183 5179 5174 5170 5165 5160 5155 5151 5146 5142 5138 5134 5130 5127 5125 5122 5120 5118 5117 5117 5117 5117 5117 5117 5116 5115 5114 5115 5113 5112 5111 5111 5110 5110 5110 5110 5110 5110 5111 5111 5112 5113 5114
5177 5172 5168 5163 5159 5154 5150 5145 5141 5136 5132 5128 5125 5122 5119 5117 5114 5111 5110 5109 5110 5109 5109 5110 5108 5108 5107 5107 5107 5105 5104 5103 5102 5102 5101 5101 5101 5101 5101 5102 5102 5103 5104 5105
5166 5162 5157 5153 5148 5144 5140 5136 5131 5127 5123 5120 5117 5113 5110 5108 5106 5104 5102 5101 5102 5102 5102 5101 5100 5100 5100 5100 5098 5097 5096 5095 5094 5094 5093 5093 5093 5093 5093 5093 5094 5095 5096 5096
5157 5153 5148 5144 5139 5135 5131 5127 5123 5120 5116 5113 5110 5106 5104 5101 5098 5096 5095 5095 5094 5095 5094 5093 5093 5094 5094 5091 5090 5088 5087 5086 5086 5086 5086 5085 5085 5085 5085 5086 5086 5087 5088 5089
5148 5144 5139 5135 5130 5126 5123 5120 5117 5113 5109 5106 5103 5100 5097 5094 5091 5089 5088 5088 5088 5088 5086 5085 5086 5086 5085 5082 5081 5080 5079 5078 5078 5078 5078 5078 5078 5078 5078 5079 5079 5080 5081 5082
5140 5135 5131 5126 5123 5121 5118 5114 5110 5106 5103 5100 5097 5094 5091 5088 5085 5083 5081 5080 5080 5080 5078 5077 5078 5077 5075 5073 5072 5071 5071 5071 5071 5071 5071 5071 5071 5071 5071 5072 5073 5074 5075 5076
5132 5128 5124 5121 5117 5115 5112 5108 5104 5100 5097 5094 5091 5088 5085 5082 5079 5077 5075 5074 5072 5072 5070 5069 5068 5068 5066 5065 5065 5064 5064 5064 5064 5064 5064 5064 5064 5064 5065 5066 5066 5067 5069 5070
5126 5122 5118 5115 5112 5109 5106 5102 5098 5095 5092 5088 5085 5083 5079 5076 5074 5071 5069 5067 5065 5064 5063 5062 5061 5060 5060 5059 5059 5059 5058 5058 5058 5058 5058 5058 5058 5059 5060 5060 5061 5063 5064 5065